GW2011 Weather Reports


time (UTC)temp
F
wind
direction
speed
knots
gust
knots
rain 1hr
in
rain 24hr
in
rain mn
in
humidity
%
barometer
mb
20260505195513 47 326 2.6 7.8 0.00 0.00 0.00 43 1007.8
20260505195012 47 295 2.6 6.1 0.00 0.00 0.00 44 1007.8
20260505194532 47 24 0.9 8.7 0.00 0.00 0.00 48 1007.8
20260505194020 47 271 2.6 10.4 0.00 0.00 0.00 46 1007.9
20260505193511 47 277 5.2 10.4 0.00 0.00 0.00 46 1007.8
20260505193040 47 307 3.5 7.0 0.00 0.00 0.00 44 1007.9
20260505192514 47 315 1.7 7.8 0.00 0.00 0.00 47 1007.8
20260505192015 46 293 1.7 7.8 0.00 0.00 0.00 46 1007.9
20260505191534 46 302 2.6 8.7 0.00 0.00 0.00 46 1008.0
20260505191013 46 284 4.3 8.7 0.00 0.00 0.00 46 1008.0
20260505190517 46 274 3.5 7.8 0.00 0.00 0.00 47 1008.0
20260505190032 46 327 2.6 7.0 0.00 0.00 0.00 47 1007.9
20260505185513 46 340 2.6 7.0 0.00 0.00 0.00 45 1007.9
20260505185017 46 9 2.6 7.0 0.00 0.00 0.00 45 1007.8
20260505184532 46 289 2.6 4.3 0.00 0.00 0.00 45 1007.8
20260505184013 46 352 1.7 7.0 0.00 0.00 0.00 46 1007.8
20260505183512 45 355 2.6 7.0 0.00 0.00 0.00 45 1007.9
20260505183043 45 289 2.6 8.7 0.00 0.00 0.00 45 1007.9
20260505182513 45 345 4.3 8.7 0.00 0.00 0.00 45 1008.0
20260505182015 45 315 4.3 7.8 0.00 0.00 0.00 47 1007.9
20260505181532 45 350 1.7 7.0 0.00 0.00 0.00 45 1007.9
20260505181018 45 341 2.6 7.0 0.00 0.00 0.00 45 1007.7
20260505180514 45 347 0.9 6.1 0.00 0.00 0.00 46 1007.9
20260505180033 45 295 2.6 6.1 0.00 0.00 0.00 45 1007.7
20260505175514 45 296 1.7 9.6 0.00 0.00 0.00 46 1007.9
20260505175011 45 265 4.3 9.6 0.00 0.00 0.00 46 1007.7
20260505174533 45 274 3.5 8.7 0.00 0.00 0.00 48 1007.8
20260505174014 45 343 0.9 7.8 0.00 0.00 0.00 47 1007.7
20260505173514 45 331 2.6 7.8 0.00 0.00 0.00 46 1007.9
20260505173032 45 293 1.7 6.1 0.00 0.00 0.00 46 1007.8
20260505172516 45 314 2.6 6.1 0.00 0.00 0.00 46 1007.7
20260505172014 46 246 1.7 3.5 0.00 0.00 0.00 46 1007.8
20260505171533 46 297 0.9 7.0 0.00 0.00 0.00 46 1007.5
20260505171018 45 269 2.6 7.0 0.00 0.00 0.00 47 1007.7
20260505170514 45 328 2.6 6.1 0.00 0.00 0.00 46 1007.8
20260505170032 45 291 2.6 7.0 0.00 0.00 0.00 46 1007.8
20260505165515 45 284 2.6 8.7 0.00 0.00 0.00 45 1007.8
20260505165014 45 298 4.3 8.7 0.00 0.00 0.00 45 1007.6
20260505164551 46 292 0.9 7.0 0.00 0.00 0.00 46 1007.4
20260505164016 46 323 2.6 7.0 0.00 0.00 0.00 46 1007.5
20260505163516 46 298 1.7 7.0 0.00 0.00 0.00 44 1007.5
20260505163036 46 287 2.6 7.8 0.00 0.00 0.00 46 1007.5
20260505162515 45 275 3.5 7.8 0.00 0.00 0.00 47 1007.6
20260505162014 45 294 0.9 7.8 0.00 0.00 0.00 47 1007.5
20260505161542 45 340 3.5 7.8 0.00 0.00 0.00 46 1007.7
20260505161016 46 302 1.7 7.0 0.00 0.00 0.00 47 1007.6
20260505160516 45 331 2.6 7.0 0.00 0.00 0.00 47 1007.6
20260505153032 45 324 2.6 7.0 0.00 0.00 0.00 51 1007.8
20260505152516 45 320 2.6 7.0 0.00 0.00 0.00 49 1007.5
20260505152015 45 306 0.9 5.2 0.00 0.00 0.00 52 1007.6
20260505151531 45 296 1.7 5.2 0.00 0.00 0.00 50 1007.7
20260505151015 45 31 0.0 7.8 0.00 0.00 0.00 52 1007.5
20260505150515 44 296 4.3 7.8 0.00 0.00 0.00 52 1007.7
20260505140518 42 281 2.6 6.1 0.00 0.00 0.00 54 1007.2
20260505125012 36 266 0.9 2.6 0.00 0.00 0.00 63 1006.7
20260505124539 36 294 0.9 3.5 0.00 0.00 0.00 63 1006.6
20260505124014 35 282 0.9 3.5 0.00 0.00 0.00 65 1006.6
20260505123513 35 282 0.9 3.5 0.00 0.00 0.00 64 1006.6
20260505123031 35 277 0.9 2.6 0.00 0.00 0.00 66 1006.4
20260505122512 35 266 0.9 2.6 0.00 0.00 0.00 67 1006.4
20260505122017 34 288 0.0 1.7 0.00 0.00 0.00 69 1006.2
20260505121535 34 288 0.0 1.7 0.00 0.00 0.00 69 1006.2
20260505121011 34 288 0.9 1.7 0.00 0.00 0.00 70 1006.1
20260505120513 34 288 0.9 1.7 0.00 0.00 0.00 72 1006.2
20260505120043 34 288 0.9 1.7 0.00 0.00 0.00 74 1006.1
20260505115513 34 288 0.0 1.7 0.00 0.00 0.00 71 1006.0
20260505115012 34 288 0.0 1.7 0.00 0.00 0.00 71 1005.9
20260505114530 34 288 0.0 1.7 0.00 0.00 0.00 72 1006.0
20260505114011 34 288 0.0 1.7 0.00 0.00 0.00 72 1005.8
20260505113511 34 0 0.0 1.7 0.00 0.00 0.00 73 1005.9
20260505113032 34 0 0.0 0.9 0.00 0.00 0.00 73 1005.7
20260505112513 34 0 0.0 0.9 0.00 0.00 0.00 73 1005.8
20260505112013 34 0 0.0 0.0 0.00 0.00 0.00 74 1005.7
20260505111529 34 0 0.0 0.0 0.00 0.00 0.00 74 1005.5
20260505111017 34 0 0.0 0.0 0.00 0.00 0.00 74 1005.5
20260505110511 34 0 0.0 0.9 0.00 0.00 0.00 74 1005.6
20260505102012 35 0 0.0 0.0 0.00 0.00 0.00 73 1005.4
20260505101532 35 0 0.0 0.0 0.00 0.00 0.00 74 1005.3
20260505101013 35 0 0.0 0.0 0.00 0.00 0.00 73 1005.5
20260505100512 35 0 0.0 0.0 0.00 0.00 0.00 73 1005.3
20260505100030 36 0 0.0 0.0 0.00 0.00 0.00 73 1005.4
20260505095513 36 0 0.0 0.0 0.00 0.00 0.00 73 1005.5
20260505095013 36 0 0.0 0.9 0.00 0.00 0.00 73 1005.4
20260505094531 36 0 0.0 0.9 0.00 0.00 0.00 73 1005.3
20260505094015 36 0 0.0 0.9 0.00 0.00 0.00 73 1005.2
20260505093514 36 0 0.0 0.9 0.00 0.00 0.00 73 1005.2
20260505093031 36 0 0.0 0.9 0.00 0.00 0.00 72 1005.2
20260505092514 37 0 0.0 0.9 0.00 0.00 0.00 73 1005.1
20260505092013 37 0 0.0 0.0 0.00 0.00 0.00 73 1005.2
20260505091531 37 0 0.0 0.9 0.00 0.00 0.00 72 1005.0
20260505091011 37 0 0.0 1.7 0.00 0.00 0.00 72 1005.1
20260505090513 37 288 0.0 2.6 0.00 0.00 0.00 72 1004.9
20260505090033 37 288 0.9 2.6 0.00 0.00 0.00 72 1004.8
20260505085513 37 288 0.0 1.7 0.00 0.00 0.00 73 1004.8
20260505085013 37 288 0.0 1.7 0.00 0.00 0.00 73 1004.7
20260505084543 37 288 0.0 1.7 0.00 0.00 0.00 73 1004.6
20260505084011 37 288 0.0 2.6 0.00 0.00 0.00 73 1004.6
20260505083511 37 288 0.9 2.6 0.00 0.00 0.00 73 1004.8
20260505083033 37 288 0.0 1.7 0.00 0.00 0.00 71 1004.5
20260505082513 37 288 0.9 1.7 0.00 0.00 0.00 70 1004.4
20260505082013 37 288 0.9 1.7 0.00 0.00 0.00 71 1004.5
20260505081533 37 288 0.0 2.6 0.00 0.00 0.00 72 1004.6
20260505081014 37 288 0.9 2.6 0.00 0.00 0.00 72 1004.5
20260505080512 37 288 0.9 2.6 0.00 0.00 0.00 73 1004.4
20260505080033 37 288 0.9 2.6 0.00 0.00 0.00 73 1004.6
20260505075513 37 288 0.0 1.7 0.00 0.00 0.00 72 1004.3
20260505075013 37 288 0.0 1.7 0.00 0.00 0.00 71 1004.3
20260505074531 37 288 0.9 2.6 0.00 0.00 0.00 75 1004.4
20260505074013 36 288 0.9 2.6 0.00 0.00 0.00 75 1004.5
20260505073516 36 288 0.9 2.6 0.00 0.00 0.00 77 1004.5
20260505073033 36 288 0.9 1.7 0.00 0.00 0.00 76 1004.5
20260505072512 36 288 0.9 1.7 0.00 0.00 0.00 75 1004.5
20260505072019 36 288 0.9 1.7 0.00 0.00 0.00 75 1004.5
20260505071533 36 288 0.9 2.6 0.00 0.00 0.00 76 1004.6
20260505071016 36 288 0.9 2.6 0.00 0.00 0.00 77 1004.4
20260505070517 36 288 0.9 2.6 0.00 0.00 0.00 77 1004.7
20260505070042 36 0 0.0 0.0 0.00 0.00 0.00 69 1004.4
20260505065517 36 0 0.0 0.0 0.00 0.00 0.00 69 1004.6
20260505065012 36 0 0.0 0.0 0.00 0.00 0.00 68 1004.7
20260505064531 36 0 0.0 0.0 0.00 0.00 0.00 68 1004.7
20260505064017 36 0 0.0 0.0 0.00 0.00 0.00 67 1004.6
20260505063515 37 0 0.0 0.0 0.00 0.00 0.00 66 1004.5
20260505063034 37 0 0.0 0.0 0.00 0.00 0.00 67 1004.7
20260505062515 37 0 0.0 0.0 0.00 0.00 0.00 66 1004.5
20260505062015 37 0 0.0 0.0 0.00 0.00 0.00 65 1004.5
20260505061534 37 0 0.0 0.0 0.00 0.00 0.00 64 1004.5
20260505061016 38 0 0.0 0.0 0.00 0.00 0.00 64 1004.5
20260505060516 38 0 0.0 0.0 0.00 0.00 0.00 63 1004.4
20260505060036 38 0 0.0 0.0 0.00 0.00 0.00 64 1004.4
20260505055516 38 0 0.0 0.0 0.00 0.00 0.00 62 1004.4
20260505055016 38 0 0.0 0.0 0.00 0.00 0.00 62 1004.2
20260505054535 39 0 0.0 0.0 0.00 0.00 0.00 62 1004.5
20260505054019 39 0 0.0 0.0 0.00 0.00 0.00 61 1004.3
20260505053515 39 0 0.0 0.0 0.00 0.00 0.00 61 1004.3
20260505053054 39 0 0.0 0.0 0.00 0.00 0.00 59 1004.4
20260505052516 40 0 0.0 0.0 0.00 0.00 0.00 59 1004.2
20260505052016 40 0 0.0 0.0 0.00 0.00 0.00 59 1004.0
20260505051534 40 0 0.0 0.0 0.00 0.00 0.00 58 1004.0
20260505051016 40 0 0.0 0.0 0.00 0.00 0.00 59 1004.0
20260505050512 40 0 0.0 0.0 0.00 0.00 0.00 60 1004.0
20260505041541 40 288 0.0 1.7 0.00 0.00 0.00 59 1003.8
20260505041015 40 0 0.9 2.6 0.00 0.00 0.00 59 1003.6
20260505040515 41 288 0.9 2.6 0.00 0.00 0.00 59 1003.7
20260505040032 41 288 0.9 2.6 0.00 0.00 0.00 58 1003.6
20260505035515 41 288 0.9 1.7 0.00 0.00 0.00 57 1003.7
20260505035015 41 288 0.9 1.7 0.00 0.00 0.00 58 1003.9
20260505034533 41 288 0.9 2.6 0.00 0.00 0.00 55 1003.7
20260505034016 42 288 0.9 2.6 0.00 0.00 0.00 55 1003.4
20260505033521 42 288 0.9 1.7 0.00 0.00 0.00 55 1003.5
20260505033040 42 288 0.0 1.7 0.00 0.00 0.00 55 1003.5
20260505032514 42 0 0.0 1.7 0.00 0.00 0.00 55 1003.5
20260505032016 42 288 0.9 1.7 0.00 0.00 0.00 54 1003.6
20260505031534 43 0 0.0 1.7 0.00 0.00 0.00 54 1003.5
20260505031017 43 288 0.0 2.6 0.00 0.00 0.00 54 1003.5
20260505030515 43 288 0.0 2.6 0.00 0.00 0.00 54 1003.5
20260505030032 43 288 0.9 1.7 0.00 0.00 0.00 54 1003.3
20260505025518 43 288 0.0 2.6 0.00 0.00 0.00 53 1003.2
20260505025016 44 288 0.9 2.6 0.00 0.00 0.00 53 1003.2
20260505024533 44 288 0.0 2.6 0.00 0.00 0.00 52 1003.2
20260505024018 44 288 0.9 2.6 0.00 0.00 0.00 52 1003.2
20260505023515 44 288 0.9 3.5 0.00 0.00 0.00 52 1003.0
20260505023031 44 288 0.9 3.5 0.00 0.00 0.00 51 1003.0
20260505022515 45 294 0.9 2.6 0.00 0.00 0.00 51 1002.9
20260505022016 45 308 0.9 2.6 0.00 0.00 0.00 50 1002.8
20260505021532 45 302 0.9 3.5 0.00 0.00 0.00 50 1002.7
20260505021015 45 290 0.9 3.5 0.00 0.00 0.00 49 1002.7
20260505020515 46 299 0.9 4.3 0.00 0.00 0.00 49 1002.6
20260505020034 46 297 1.7 4.3 0.00 0.00 0.00 48 1002.6
20260505015515 46 313 0.9 3.5 0.00 0.00 0.00 49 1002.4
20260505015014 46 317 0.9 3.5 0.00 0.00 0.00 48 1002.3
20260505014535 46 319 0.9 5.2 0.00 0.00 0.00 48 1002.3
20260505014016 46 286 2.6 5.2 0.00 0.00 0.00 48 1002.1
20260505013514 46 303 1.7 4.3 0.00 0.00 0.00 48 1002.2
20260505013033 47 311 1.7 3.5 0.00 0.00 0.00 48 1002.1
20260505012515 47 293 1.7 4.3 0.00 0.00 0.00 48 1002.1
20260505012015 47 291 1.7 6.1 0.00 0.00 0.00 47 1002.1
20260505011553 47 294 2.6 6.1 0.00 0.00 0.00 46 1002.1
20260505011015 48 291 0.9 7.0 0.00 0.00 0.00 46 1001.9
20260505010519 48 315 1.7 7.0 0.00 0.00 0.00 46 1001.9
20260505010033 48 345 2.6 6.1 0.00 0.00 0.00 45 1001.9
20260505005518 48 336 1.7 8.7 0.00 0.00 0.00 45 1001.7
20260505005016 48 318 4.3 8.7 0.00 0.00 0.00 44 1001.5
20260505004530 48 360 2.6 8.7 0.00 0.00 0.00 44 1001.6
20260505004015 48 329 3.5 7.0 0.00 0.00 0.00 43 1001.6
20260505003518 48 331 1.7 6.1 0.00 0.00 0.00 43 1001.6
20260505003033 48 292 3.5 6.1 0.00 0.00 0.00 42 1001.7
20260505002515 48 287 2.6 6.1 0.00 0.00 0.00 43 1001.4
20260505002019 49 319 2.6 6.1 0.00 0.00 0.00 42 1001.6
20260505001532 49 296 2.6 6.1 0.00 0.00 0.00 42 1001.4
20260505001017 49 302 2.6 6.1 0.00 0.00 0.00 42 1001.6
20260505000516 49 343 2.6 7.8 0.00 0.00 0.00 45 1001.4
20260505000038 49 310 2.6 7.8 0.00 0.00 0.00 42 1001.4
20260504235515 49 325 1.7 7.0 0.00 0.00 0.00 45 1001.4
20260504235015 48 99 1.7 6.1 0.00 0.00 0.00 43 1001.6
20260504234532 49 355 2.6 8.7 0.00 0.00 0.00 42 1001.6
20260504234016 49 284 3.5 8.7 0.00 0.00 0.00 43 1001.6
20260504233515 49 306 2.6 7.0 0.00 0.00 0.00 43 1001.7
20260504233040 49 320 1.7 7.0 0.00 0.00 0.00 44 1001.7
20260504232515 49 289 0.9 6.1 0.00 0.00 0.00 46 1001.7
20260504232015 48 313 1.7 6.1 0.00 0.00 0.00 46 1001.8
20260504231533 48 281 2.6 7.0 0.00 0.00 0.00 46 1001.8
20260504231014 48 311 3.5 9.6 0.00 0.00 0.00 46 1001.7
20260504230515 48 329 1.7 9.6 0.00 0.00 0.00 47 1001.6
20260504230033 49 290 3.5 8.7 0.00 0.00 0.00 45 1001.5
20260504225515 49 293 3.5 8.7 0.00 0.00 0.00 45 1001.5
20260504225013 49 48 3.5 10.4 0.00 0.00 0.00 44 1001.3
20260504224538 50 288 5.2 10.4 0.00 0.00 0.00 44 1001.4
20260504224015 50 288 3.5 10.4 0.00 0.00 0.00 45 1001.3
20260504223516 51 288 3.5 11.3 0.00 0.00 0.00 45 1001.2
20260504223030 50 321 3.5 11.3 0.00 0.00 0.00 45 1001.1
20260504222514 50 329 4.3 11.3 0.00 0.00 0.00 45 1001.0
20260504222021 51 327 3.5 8.7 0.00 0.00 0.00 45 1001.0
20260504221534 51 296 2.6 8.7 0.00 0.00 0.00 46 1000.8
20260504221017 51 325 2.6 7.8 0.00 0.00 0.00 46 1000.6
20260504220514 51 279 3.5 7.8 0.00 0.00 0.00 44 1000.7
20260504220034 51 294 3.5 8.7 0.00 0.00 0.00 43 1000.6
20260504215515 51 324 4.3 9.6 0.00 0.00 0.00 43 1000.5
20260504215015 51 293 3.5 9.6 0.00 0.00 0.00 44 1000.6
20260504214534 51 305 3.5 8.7 0.00 0.00 0.00 44 1000.5
20260504214015 51 302 2.6 7.8 0.00 0.00 0.00 44 1000.4
20260504213514 51 269 3.5 9.6 0.00 0.00 0.00 44 1000.3
20260504213034 51 352 3.5 9.6 0.00 0.00 0.00 46 1000.5
20260504212521 51 350 4.3 9.6 0.00 0.00 0.00 45 1000.3
20260504212016 51 300 4.3 11.3 0.00 0.00 0.00 45 1000.1
20260504211532 51 321 4.3 11.3 0.00 0.00 0.00 45 1000.2
20260504211015 51 282 3.5 8.7 0.00 0.00 0.00 46 1000.3
20260504210515 51 294 4.3 9.6 0.00 0.00 0.00 45 1000.2
20260504210032 52 271 4.3 10.4 0.00 0.00 0.00 44 1000.1
20260504205515 52 294 4.3 10.4 0.00 0.00 0.00 43 1000.0
20260504205014 52 290 5.2 10.4 0.00 0.00 0.00 43 1000.0
20260504204531 53 279 3.5 9.6 0.00 0.00 0.00 44 999.8
20260504204015 53 280 3.5 7.8 0.00 0.00 0.00 42 999.9
20260504203514 54 267 3.5 8.7 0.00 0.00 0.00 42 1000.0
20260504203031 53 342 3.5 8.7 0.00 0.00 0.00 44 999.6
20260504202516 54 260 3.5 10.4 0.00 0.00 0.00 43 999.8
20260504202013 54 301 4.3 10.4 0.00 0.00 0.00 42 999.8
20260504201532 55 313 2.6 10.4 0.00 0.00 0.00 42 999.7
20260504201015 55 290 5.2 11.3 0.00 0.00 0.00 42 999.7
20260504200515 55 334 5.2 11.3 0.00 0.00 0.00 42 999.7
20260504200032 55 309 2.6 13.9 0.00 0.00 0.00 44 999.5